Tracking 19794 objects as of 21-Jul-2019
HD Live streaming from Space Station
objects crossing your sky now

WESTFORD NEEDLES

Track WESTFORD NEEDLES now!
10-day predictions
WESTFORD NEEDLES is classified as:


NORAD ID: 2362
Int'l Code: 1963-014M
Perigee: 1,370.4 km
Apogee: 5,721.9 km
Inclination: 85.9 °
Period: 163.8 minutes
Semi major axis: 9917 km
RCS: 0.2493 m2 (medium)
Launch date: May 9, 1963
Source: United States (US)
Launch site: AIR FORCE WESTERN TEST RANGE (AFWTR)
aabbcc
Your satellite tracking list
Your tracking list is empty




NASA's NSSDC Master Catalog

Two Line Element Set (TLE):
1  2362U 63014M   19202.13400953  .00000235  00000-0  70630-2 0  9994
2  2362  85.9228  69.9569 2193912 110.4340 274.4681  8.79069428784355
Source of the keplerian elements: AFSPC